Stevens Pass
Grace Lakes & Old Faithful
Latest observation 09/03 17:00 PDT
| Time (PDT) | Temp °F 4790' | RH % 4790' | Min mph 4590' | Spd mph 4590' | Gust mph 4590' | Dir ° 4590' | SnoHt in 4790' | I/S_Sno in 4790' |
|---|---|---|---|---|---|---|---|---|
| 09/03 17:00 | 45 | 87 | 0 | 1 | 6 | 289 | 6.7 | -42.3 |
| 09/03 16:00 | 48 | 81 | 0 | 2 | 6 | 14 | 6.4 | 35.8 |
| 09/03 15:00 | 48 | 79 | 0 | 1 | 5 | 351 | 6.4 | 26.6 |
| 09/03 14:00 | 47 | 85 | 0 | 1 | 5 | 291 | 6.8 | -7.0 |
| 09/03 13:00 | 48 | 75 | 0 | 1 | 6 | 355 | 6.3 | 44.3 |
| 09/03 12:00 | 48 | 71 | 0 | 2 | 6 | 328 | 6.3 | 27.3 |
| 09/03 11:00 | 45 | 78 | 0 | 1 | 4 | 94 | 6.7 | -37.5 |
| 09/03 10:00 | 44 | 81 | 0 | 1 | 5 | 49 | 6.6 | -73.7 |
| 09/03 09:00 | 42 | 90 | 0 | 0 | 3 | 42 | 6.8 | -140.7 |
| 09/03 08:00 | 40 | 87 | 0 | 0 | 2 | 32 | 6.9 | -150.7 |
| 09/03 07:00 | 38 | 86 | 0 | 0 | 2 | 241 | 7.3 | -149.7 |
| 09/03 06:00 | 38 | 93 | 0 | 1 | 4 | 267 | 7.2 | -146.5 |
| 09/03 05:00 | 38 | 92 | 0 | 1 | 3 | 276 | 7.1 | -142.5 |
| 09/03 04:00 | 38 | 91 | 0 | 1 | 4 | 279 | 7.0 | -143.8 |
| 09/03 03:00 | 37 | 94 | 0 | 1 | 3 | 263 | 6.8 | -137.9 |
| 09/03 02:00 | 37 | 94 | 0 | 1 | 6 | 255 | 7.1 | -131.7 |
| 09/03 01:00 | 37 | 96 | 0 | 1 | 6 | 278 | 7.0 | -131.2 |
| 09/03 00:00 | 39 | 96 | 0 | 1 | 7 | 276 | 7.0 | -131.1 |
| 09/02 23:00 | 40 | 95 | 0 | 1 | 8 | 266 | 6.9 | -131.7 |
| 09/02 22:00 | 40 | 95 | 0 | 3 | 11 | 273 | 7.0 | -125.4 |
| 09/02 21:00 | 43 | 95 | 0 | 2 | 10 | 259 | 6.7 | -116.7 |
| 09/02 20:00 | 44 | 86 | 0 | 2 | 5 | 213 | 6.8 | -141.7 |
| 09/02 19:00 | 43 | 88 | 0 | 2 | 7 | 200 | 6.8 | -129.8 |
| 09/02 18:00 | 45 | 94 | 0 | 1 | 5 | 26 | 6.9 | -126.1 |
| 09/02 17:00 | 47 | 88 | 0 | 1 | 8 | 339 | 6.8 | -122.0 |
| 09/02 16:00 | 51 | 77 | 0 | 1 | 5 | 159 | 6.8 | 5.4 |
| 09/02 15:00 | 50 | 85 | 0 | 0 | 3 | 219 | 6.6 | -54.9 |
| 09/02 14:00 | 51 | 78 | 0 | 1 | 7 | 27 | 6.4 | 41.4 |
| 09/02 13:00 | 51 | 71 | 0 | 1 | 6 | 315 | 6.4 | 56.7 |
| 09/02 12:00 | 51 | 71 | 0 | 2 | 6 | 330 | 6.3 | 49.7 |
| 09/02 11:00 | 50 | 77 | 0 | 1 | 6 | 299 | 6.6 | -12.3 |
| 09/02 10:00 | 46 | 89 | 0 | 1 | 5 | 345 | 6.6 | -121.1 |
| 09/02 09:00 | 45 | 93 | 0 | 1 | 7 | 23 | 6.7 | -116.3 |
| 09/02 08:00 | 44 | 7 | 0 | 1 | 6 | 289 | 6.8 | -95.1 |
| 09/02 07:00 | 44 | 0 | 0 | 1 | 6 | 357 | 6.8 | -89.5 |
| 09/02 06:00 | 45 | 0 | 0 | 1 | 6 | 302 | 6.8 | -93.3 |
| 09/02 05:00 | 45 | 0 | 0 | 0 | 4 | 14 | 6.8 | -107.1 |
| 09/02 04:00 | 44 | 95 | 0 | 1 | 6 | 298 | 6.8 | -143.1 |
| 09/02 03:00 | 45 | 99 | 0 | 1 | 6 | 304 | 6.8 | -139.0 |
| 09/02 02:00 | 45 | 99 | 0 | 1 | 7 | 310 | 6.8 | -128.8 |
| 09/02 01:00 | 46 | 100 | 0 | 1 | 4 | 360 | 6.7 | -128.1 |
| 09/02 00:00 | 46 | 0 | 0 | 1 | 6 | 56 | 6.9 | -110.9 |
| 09/01 23:00 | 47 | 96 | 0 | 1 | 4 | 360 | 6.6 | -139.1 |
| 09/01 22:00 | 47 | 95 | 0 | 1 | 5 | 258 | 6.6 | -138.7 |
| 09/01 21:00 | 48 | 93 | 0 | 1 | 6 | 298 | 6.8 | -133.7 |
| 09/01 20:00 | 48 | 93 | 0 | 1 | 7 | 266 | 6.6 | -128.6 |
| 09/01 19:00 | 49 | 93 | 0 | 1 | 7 | 71 | 6.6 | -119.9 |
| 09/01 18:00 | 50 | 93 | 0 | 1 | 7 | 271 | 6.5 | -110.3 |
| 09/01 17:00 | 51 | 90 | 0 | 1 | 6 | 201 | 6.6 | -55.5 |
| 09/01 16:00 | 55 | 82 | 0 | 1 | 5 | 357 | 6.1 | 59.4 |
| 09/01 15:00 | 57 | 79 | 0 | 1 | 4 | 82 | 6.1 | 63.0 |
| 09/01 14:00 | 60 | 69 | 0 | 1 | 5 | 136 | 5.9 | 63.9 |
| 09/01 13:00 | 62 | 60 | 0 | 2 | 6 | 281 | 5.9 | 64.1 |
| 09/01 12:00 | 60 | 62 | 0 | 1 | 4 | 309 | 6.1 | 64.3 |
| 09/01 11:00 | 60 | 59 | 0 | 1 | 5 | 277 | 6.0 | 60.3 |
| 09/01 10:00 | 57 | 67 | 0 | 1 | 3 | 7 | 6.1 | 47.3 |
| 09/01 09:00 | 54 | 67 | 0 | 1 | 4 | 289 | 6.3 | 28.0 |
| 09/01 08:00 | 51 | 73 | 0 | 1 | 3 | 258 | 6.5 | 41.7 |
| 09/01 07:00 | 53 | 57 | 0 | 2 | 5 | 282 | 6.4 | 51.1 |
| 09/01 06:00 | 55 | 48 | 0 | 1 | 4 | 131 | 6.3 | 54.6 |
| 09/01 05:00 | 56 | 46 | 3 | 7 | 11 | 171 | 6.6 | 52.2 |
| 09/01 04:00 | 56 | 43 | 2 | 6 | 11 | 174 | 6.7 | 55.3 |
| 09/01 03:00 | 58 | 41 | 0 | 2 | 9 | 193 | 6.5 | 56.2 |
| 09/01 02:00 | 57 | 43 | 0 | 4 | 10 | 178 | 6.4 | 54.5 |
| 09/01 01:00 | 57 | 46 | 3 | 6 | 10 | 179 | 6.4 | 55.0 |
| 09/01 00:00 | 57 | 47 | 0 | 6 | 9 | 175 | 6.5 | 55.0 |
| 08/31 23:00 | 57 | 47 | 1 | 4 | 7 | 185 | 6.4 | 56.0 |
| 08/31 22:00 | 57 | 49 | 1 | 3 | 7 | 187 | 6.4 | 56.8 |
| 08/31 21:00 | 59 | 48 | 0 | 3 | 7 | 181 | 6.2 | 58.5 |
| 08/31 20:00 | 58 | 52 | 4 | 9 | 14 | 163 | 6.3 | 61.1 |
| 08/31 19:00 | 61 | 47 | 4 | 10 | 16 | 167 | 6.1 | 61.3 |
| 08/31 18:00 | 62 | 45 | 6 | 10 | 14 | 151 | 6.0 | 62.2 |
| 08/31 17:00 | 64 | 43 | 6 | 10 | 15 | 138 | 6.1 | 63.3 |
| 08/31 16:00 | 66 | 42 | 6 | 10 | 19 | 145 | 6.0 | 60.0 |
| 08/31 15:00 | 65 | 43 | 6 | 10 | 15 | 146 | 6.1 | 61.0 |
| 08/31 14:00 | 64 | 46 | 5 | 10 | 15 | 140 | 5.8 | 60.8 |
| 08/31 13:00 | 62 | 51 | 6 | 10 | 15 | 140 | 6.0 | 61.3 |
| 08/31 12:00 | 60 | 55 | 5 | 10 | 16 | 147 | 6.0 | 63.0 |
| 08/31 11:00 | 59 | 55 | 5 | 11 | 17 | 161 | 6.2 | 60.3 |
| 08/31 10:00 | 55 | 64 | 6 | 11 | 17 | 162 | 6.4 | 38.7 |
| 08/31 09:00 | 52 | 72 | 5 | 10 | 14 | 161 | 7.0 | -19.1 |
| 08/31 08:00 | 50 | 76 | 7 | 11 | 15 | 168 | 7.0 | -56.9 |
| 08/31 07:00 | 47 | 81 | 6 | 11 | 15 | 170 | 6.9 | -83.7 |
| 08/31 06:00 | 48 | 79 | 3 | 9 | 16 | 174 | 7.2 | -74.2 |
| 08/31 05:00 | 48 | 79 | 4 | 8 | 13 | 176 | 7.3 | -87.6 |
| 08/31 04:00 | 48 | 78 | 3 | 7 | 14 | 174 | 7.1 | -98.6 |
| 08/31 03:00 | 48 | 77 | 0 | 1 | 6 | 210 | 7.2 | -81.6 |
| 08/31 02:00 | 47 | 82 | 0 | 1 | 4 | 272 | 6.9 | -131.2 |
| 08/31 01:00 | 44 | 93 | 0 | 1 | 3 | 255 | 7.3 | -140.2 |
| 08/31 00:00 | 43 | 95 | 0 | 1 | 4 | 273 | 7.2 | -134.6 |
| 08/30 23:00 | 44 | 93 | 0 | 0 | 3 | 284 | 7.1 | -139.4 |
| 08/30 22:00 | 45 | 92 | 0 | 1 | 5 | 277 | 7.2 | -137.2 |
| 08/30 21:00 | 45 | 91 | 0 | 1 | 4 | 294 | 6.9 | -135.3 |
| 08/30 20:00 | 45 | 91 | 0 | 0 | 5 | 216 | 7.1 | -129.5 |
| 08/30 19:00 | 46 | 89 | 0 | 1 | 6 | 232 | 6.7 | -110.5 |
| 08/30 18:00 | 47 | 85 | 0 | 1 | 5 | 147 | 6.8 | -72.0 |
| 08/30 17:00 | 47 | 82 | 0 | 1 | 9 | 140 | 6.5 | -21.5 |
| 08/30 16:00 | 48 | 82 | 0 | 1 | 5 | 88 | 6.6 | -15.0 |
| 08/30 15:00 | 48 | 78 | 0 | 1 | 5 | 244 | 6.4 | 15.6 |
| 08/30 14:00 | 47 | 80 | 0 | 1 | 6 | 215 | 6.4 | -7.4 |
| 08/30 13:00 | 46 | 83 | 0 | 1 | 5 | 211 | 6.7 | -37.9 |
| 08/30 12:00 | 45 | 88 | 0 | 1 | 6 | 216 | 7.0 | -72.3 |
| 08/30 11:00 | 43 | 92 | 0 | 1 | 7 | 239 | 7.1 | -135.2 |
| 08/30 10:00 | 42 | 94 | 0 | 1 | 6 | 232 | 7.0 | -139.3 |
| 08/30 09:00 | 41 | 96 | 0 | 1 | 4 | 235 | 6.9 | -141.6 |
| 08/30 08:00 | 41 | 99 | 0 | 1 | 6 | 303 | 7.1 | -142.8 |
| 08/30 07:00 | 41 | 98 | 0 | 2 | 6 | 291 | 6.8 | -127.5 |
| 08/30 06:00 | 41 | 9 | 0 | 3 | 10 | 302 | 7.1 | -102.7 |
| 08/30 05:00 | 41 | 37 | 0 | 2 | 6 | 280 | 6.9 | -112.3 |
| 08/30 04:00 | 41 | 98 | 0 | 1 | 6 | 296 | 6.9 | -140.9 |
| 08/30 03:00 | 41 | 95 | 0 | 2 | 8 | 330 | 7.0 | -141.8 |
| 08/30 02:00 | 41 | 96 | 0 | 1 | 7 | 305 | 7.0 | -139.8 |
| 08/30 01:00 | 41 | 95 | 0 | 2 | 10 | 311 | 7.2 | -140.5 |
| 08/30 00:00 | 41 | 95 | 0 | 3 | 11 | 302 | 7.0 | -138.9 |
| 08/29 23:00 | 41 | 96 | 0 | 2 | 9 | 289 | 7.1 | -139.9 |
| 08/29 22:00 | 41 | 95 | 0 | 2 | 7 | 310 | 6.8 | -142.9 |
| 08/29 21:00 | 41 | 94 | 0 | 3 | 10 | 310 | 7.1 | -140.4 |
| 08/29 20:00 | 41 | 95 | 0 | 1 | 7 | 247 | 7.0 | -135.6 |
| 08/29 19:00 | 42 | 95 | 0 | 2 | 10 | 315 | 6.9 | -130.9 |
| 08/29 18:00 | 42 | 94 | 0 | 3 | 14 | 293 | 6.7 | -134.5 |
| 08/29 17:00 | 42 | 94 | 0 | 4 | 16 | 294 | 6.8 | -133.7 |
| 08/29 16:00 | 42 | 96 | 0 | 4 | 12 | 302 | 6.8 | -135.4 |
| 08/29 15:00 | 42 | 96 | 0 | 3 | 13 | 299 | 7.0 | -137.7 |
| 08/29 14:00 | 41 | 58 | 0 | 4 | 11 | 282 | 7.0 | -131.4 |
| 08/29 13:00 | 42 | 98 | 0 | 3 | 14 | 271 | 7.0 | -129.2 |
| 08/29 12:00 | 42 | 17 | 0 | 3 | 12 | 261 | 7.0 | -118.8 |
| 08/29 11:00 | 41 | 28 | 0 | 3 | 11 | 276 | 6.9 | -112.6 |
| 08/29 10:00 | 40 | 53 | 0 | 3 | 12 | 268 | 6.9 | -117.1 |
| 08/29 09:00 | 41 | 9 | 0 | 3 | 9 | 272 | 7.0 | -134.6 |
| 08/29 08:00 | 41 | 34 | 0 | 2 | 12 | 265 | 6.8 | -155.0 |
| 08/29 07:00 | 41 | 100 | 0 | 2 | 8 | 294 | 6.9 | -155.1 |
| 08/29 06:00 | 41 | 97 | 0 | 3 | 9 | 299 | 6.7 | -154.6 |
| 08/29 05:00 | 42 | 96 | 0 | 2 | 9 | 302 | 6.8 | -153.4 |
| 08/29 04:00 | 42 | 96 | 0 | 3 | 11 | 303 | 6.6 | -154.2 |
| 08/29 03:00 | 44 | 96 | 0 | 3 | 9 | 313 | 6.8 | -152.8 |
| 08/29 02:00 | 45 | 94 | 0 | 1 | 6 | 311 | 6.5 | -140.0 |
| 08/29 01:00 | 45 | 93 | 0 | 1 | 6 | 308 | 6.7 | -123.5 |
| 08/29 00:00 | 45 | 90 | 0 | 1 | 8 | 310 | 6.5 | -112.5 |
| 08/28 23:00 | 45 | 94 | 0 | 1 | 7 | 268 | 6.6 | -129.8 |
| 08/28 22:00 | 45 | 93 | 0 | 1 | 8 | 257 | 6.5 | -120.7 |
| 08/28 21:00 | 46 | 90 | 0 | 1 | 6 | 264 | 6.5 | -98.2 |
| 08/28 20:00 | 47 | 88 | 0 | 1 | 5 | 86 | 6.8 | 3.5 |
| 08/28 19:00 | 50 | 81 | 0 | 1 | 7 | 91 | 6.7 | 46.1 |
| 08/28 18:00 | 53 | 71 | 0 | 2 | 7 | 54 | 6.4 | 57.5 |
| 08/28 17:00 | 56 | 61 | 0 | 3 | 9 | 341 | 6.3 | 59.8 |
| 08/28 16:00 | 61 | 52 | 0 | 3 | 10 | 335 | 6.2 | 57.5 |
| 08/28 15:00 | 60 | 54 | 0 | 4 | 12 | 354 | 6.2 | 56.5 |
| 08/28 14:00 | 58 | 56 | 0 | 3 | 10 | 339 | 5.9 | 56.3 |
| 08/28 13:00 | 55 | 64 | 0 | 2 | 10 | 306 | 6.0 | 60.3 |
| 08/28 12:00 | 55 | 65 | 0 | 3 | 8 | 294 | 6.0 | 56.5 |
| 08/28 11:00 | 52 | 77 | 0 | 1 | 5 | 322 | 6.2 | 21.8 |
| 08/28 10:00 | 50 | 87 | 0 | 1 | 5 | 2 | 6.5 | -49.8 |
| 08/28 09:00 | 47 | 92 | 0 | 1 | 4 | 359 | 6.6 | -99.2 |
| 08/28 08:00 | 45 | 93 | 0 | 1 | 4 | 315 | 6.8 | -113.8 |
| 08/28 07:00 | 45 | 94 | 0 | 0 | 6 | 297 | 6.8 | -117.8 |
| 08/28 06:00 | 45 | 94 | 0 | 0 | 3 | 260 | 6.5 | -125.4 |
| 08/28 05:00 | 45 | 95 | 0 | 0 | 3 | 276 | 6.9 | -131.9 |
| 08/28 04:00 | 45 | 93 | 0 | 0 | 3 | 238 | 6.8 | -117.4 |
| 08/28 03:00 | 45 | 93 | 0 | 1 | 6 | 302 | 6.8 | -128.6 |
| 08/28 02:00 | 46 | 91 | 0 | 1 | 5 | 297 | 6.8 | -98.8 |
| 08/28 01:00 | 47 | 92 | 0 | 1 | 7 | 289 | 6.8 | -79.7 |
| 08/28 00:00 | 48 | 90 | 0 | 1 | 6 | 257 | 6.7 | -32.3 |
| 08/27 23:00 | 48 | 88 | 0 | 1 | 6 | 264 | 6.7 | 3.8 |
| 08/27 22:00 | 49 | 85 | 0 | 1 | 7 | 303 | 6.8 | 14.2 |
| 08/27 21:00 | 49 | 83 | 0 | 4 | 11 | 298 | 6.6 | 19.9 |
| 08/27 20:00 | 49 | 82 | 0 | 3 | 11 | 296 | 6.7 | 32.3 |
| 08/27 19:00 | 51 | 77 | 0 | 4 | 14 | 305 | 6.7 | 43.1 |
| 08/27 18:00 | 52 | 72 | 0 | 3 | 13 | 313 | 6.2 | 50.9 |

